AFL527 UWGG-UUEE

Flight info

Callsign AFL527
Flight time 0h 56m
Altitude 28000
Route LARNO T291 URIDU L158 DIMGI
Aircraft A21N/M-SDE2E3FGHIRWXY/LB1

Departure

Time 2026-04-22 15:41
Airport Nizhny Novgorod / Strigino International Airport (UWGG)

Arrival

Time 2026-04-22 16:37
Airport Sheremetyevo International Airport (UUEE)
Time Latitude Longitude Altitude Speed Heading
2026-04-22 15:17 56.22274 43.78871 250 ft 0 kts 147°
2026-04-22 15:31 56.22272 43.78875 250 ft 0 kts 124°
2026-04-22 15:31 56.22273 43.78895 251 ft 2 kts 70°
2026-04-22 15:31 56.22307 43.78934 250 ft 9 kts 13°
2026-04-22 15:32 56.22389 43.78956 250 ft 13 kts 355°
2026-04-22 15:32 56.22470 43.78875 250 ft 13 kts 339°
2026-04-22 15:32 56.22575 43.78886 250 ft 16 kts 12°
2026-04-22 15:32 56.22702 43.78935 250 ft 21 kts 12°
2026-04-22 15:33 56.22859 43.78997 250 ft 25 kts 12°
2026-04-22 15:33 56.23014 43.79055 251 ft 22 kts 12°
2026-04-22 15:33 56.23172 43.79107 252 ft 20 kts 11°
2026-04-22 15:33 56.23305 43.79152 253 ft 18 kts 11°
2026-04-22 15:34 56.23420 43.79191 253 ft 9 kts 11°
2026-04-22 15:34 56.23462 43.79206 253 ft 3 kts 11°
2026-04-22 15:34 56.23491 43.79215 253 ft 4 kts 10°
2026-04-22 15:34 56.23531 43.79225 253 ft 7 kts
2026-04-22 15:35 56.23571 43.79229 252 ft 9 kts
2026-04-22 15:35 56.23680 43.79238 251 ft 13 kts
2026-04-22 15:35 56.23767 43.79246 251 ft 10 kts
2026-04-22 15:35 56.23846 43.79254 250 ft 9 kts
2026-04-22 15:36 56.23914 43.79260 250 ft 11 kts
2026-04-22 15:36 56.23977 43.79263 250 ft 8 kts 360°
2026-04-22 15:36 56.24040 43.79241 250 ft 9 kts 334°
2026-04-22 15:36 56.24060 43.79211 249 ft 0 kts 318°
2026-04-22 15:38 56.24073 43.79189 249 ft 4 kts 315°
2026-04-22 15:38 56.24098 43.79125 248 ft 7 kts 301°
2026-04-22 15:39 56.24110 43.79022 246 ft 9 kts 257°
2026-04-22 15:39 56.24067 43.78968 246 ft 0 kts 191°
2026-04-22 15:40 56.23927 43.78920 247 ft 51 kts 191°
2026-04-22 15:40 56.23370 43.78719 247 ft 109 kts 192°
2026-04-22 15:40 56.22467 43.78387 247 ft 156 kts 191°
2026-04-22 15:41 56.21342 43.77988 531 ft 169 kts 192°
2026-04-22 15:41 56.20162 43.77576 926 ft 179 kts 192°
2026-04-22 15:41 56.18878 43.77163 1250 ft 206 kts 191°
2026-04-22 15:41 56.17308 43.76569 1393 ft 253 kts 203°
2026-04-22 15:42 56.15847 43.74883 2164 ft 252 kts 220°
2026-04-22 15:42 56.14481 43.73011 3137 ft 247 kts 218°
2026-04-22 15:42 56.13053 43.71337 3863 ft 252 kts 213°
2026-04-22 15:42 56.11520 43.69804 4592 ft 256 kts 211°
2026-04-22 15:43 56.09927 43.68379 5320 ft 259 kts 209°
2026-04-22 15:43 56.08295 43.67007 6033 ft 262 kts 208°
2026-04-22 15:43 56.06641 43.65657 6733 ft 265 kts 208°
2026-04-22 15:43 56.04953 43.64294 7413 ft 269 kts 207°
2026-04-22 15:44 56.03258 43.62902 8045 ft 272 kts 211°
2026-04-22 15:44 56.01698 43.61028 8664 ft 273 kts 224°
2026-04-22 15:44 56.00365 43.58593 9296 ft 275 kts 231°
2026-04-22 15:44 55.99110 43.55999 9889 ft 280 kts 232°
2026-04-22 15:45 55.97817 43.53291 10241 ft 294 kts 232°
2026-04-22 15:45 55.96468 43.50479 10531 ft 309 kts 232°
2026-04-22 15:45 55.95042 43.47530 10807 ft 323 kts 231°
2026-04-22 15:45 55.93543 43.44447 11075 ft 337 kts 231°
2026-04-22 15:46 55.91977 43.41245 11424 ft 348 kts 231°
2026-04-22 15:46 55.90375 43.37981 11976 ft 351 kts 231°
2026-04-22 15:46 55.88761 43.34708 12543 ft 354 kts 230°
2026-04-22 15:46 55.87138 43.31427 13078 ft 358 kts 230°
2026-04-22 15:47 55.85486 43.28079 13605 ft 361 kts 230°
2026-04-22 15:47 55.83831 43.24725 14125 ft 365 kts 230°
2026-04-22 15:47 55.82152 43.21324 14637 ft 368 kts 230°
2026-04-22 15:47 55.80635 43.17690 15088 ft 369 kts 244°
2026-04-22 15:48 55.79847 43.13389 15558 ft 367 kts 263°
2026-04-22 15:48 55.79852 43.08898 16046 ft 367 kts 277°
2026-04-22 15:48 55.80117 43.04412 16482 ft 371 kts 278°
2026-04-22 15:48 55.80406 42.99840 16910 ft 374 kts 278°
2026-04-22 15:49 55.80691 42.95216 17355 ft 377 kts 278°
2026-04-22 15:49 55.80965 42.90610 17781 ft 380 kts 278°
2026-04-22 15:49 55.81239 42.85896 18201 ft 383 kts 278°
2026-04-22 15:49 55.81504 42.81225 18603 ft 386 kts 278°
2026-04-22 15:50 55.81768 42.76497 18999 ft 389 kts 278°
2026-04-22 15:50 55.82035 42.71681 19407 ft 391 kts 278°
2026-04-22 15:50 55.82297 42.66902 19813 ft 394 kts 278°
2026-04-22 15:50 55.82560 42.62054 20216 ft 396 kts 278°
2026-04-22 15:51 55.82822 42.57204 20604 ft 398 kts 278°
2026-04-22 15:51 55.83083 42.52313 20981 ft 401 kts 278°
2026-04-22 15:51 55.83347 42.47330 21351 ft 403 kts 278°
2026-04-22 15:51 55.83607 42.42376 21723 ft 406 kts 278°
2026-04-22 15:52 55.83866 42.37408 22085 ft 408 kts 279°
2026-04-22 15:52 55.84125 42.32390 22440 ft 410 kts 278°
2026-04-22 15:52 55.84383 42.27345 22794 ft 412 kts 278°
2026-04-22 15:52 55.84639 42.22297 23145 ft 414 kts 278°
2026-04-22 15:53 55.84898 42.17166 23502 ft 416 kts 278°
2026-04-22 15:53 55.85153 42.12052 23848 ft 417 kts 278°
2026-04-22 15:53 55.85408 42.06911 24175 ft 419 kts 278°
2026-04-22 15:53 55.85661 42.01775 24484 ft 421 kts 278°
2026-04-22 15:54 55.85912 41.96631 24791 ft 423 kts 278°
2026-04-22 15:54 55.86162 41.91417 25075 ft 425 kts 278°
2026-04-22 15:54 55.86412 41.86190 25360 ft 428 kts 278°
2026-04-22 15:54 55.86619 41.80881 25635 ft 431 kts 276°
2026-04-22 15:55 55.86665 41.75534 25906 ft 434 kts 272°
2026-04-22 15:55 55.86552 41.70159 26183 ft 437 kts 270°
2026-04-22 15:55 55.86395 41.64785 26463 ft 438 kts 270°
2026-04-22 15:55 55.86229 41.59367 26735 ft 440 kts 270°
2026-04-22 15:56 55.86060 41.53971 27013 ft 441 kts 270°
2026-04-22 15:56 55.85891 41.48586 27337 ft 441 kts 270°
2026-04-22 15:56 55.85719 41.43152 27593 ft 439 kts 270°
2026-04-22 15:56 55.85547 41.37766 27613 ft 439 kts 270°
2026-04-22 15:57 55.85373 41.32363 27617 ft 439 kts 269°
2026-04-22 15:57 55.85197 41.26916 27619 ft 438 kts 269°
2026-04-22 15:57 55.85022 41.21589 27616 ft 438 kts 269°
2026-04-22 15:57 55.84840 41.16136 27618 ft 438 kts 269°
2026-04-22 15:58 55.84659 41.10771 27618 ft 438 kts 269°
2026-04-22 15:58 55.84475 41.05428 27621 ft 438 kts 269°
2026-04-22 15:58 55.84287 40.99995 27624 ft 438 kts 269°
2026-04-22 15:58 55.84098 40.94626 27627 ft 438 kts 269°
2026-04-22 15:59 55.83907 40.89262 27622 ft 437 kts 269°
2026-04-22 15:59 55.83714 40.83877 27621 ft 437 kts 269°
2026-04-22 15:59 55.83518 40.78527 27619 ft 437 kts 269°
2026-04-22 15:59 55.83316 40.73086 27618 ft 437 kts 270°
2026-04-22 16:00 55.83185 40.69570 27617 ft 437 kts 270°
2026-04-22 16:00 55.82914 40.62371 27615 ft 437 kts 269°
2026-04-22 16:00 55.82707 40.57040 27618 ft 437 kts 269°
2026-04-22 16:00 55.82490 40.51621 27618 ft 436 kts 269°
2026-04-22 16:01 55.82275 40.46311 27619 ft 436 kts 269°
2026-04-22 16:01 55.82056 40.40968 27617 ft 436 kts 269°
2026-04-22 16:01 55.81834 40.35607 27620 ft 437 kts 269°
2026-04-22 16:01 55.81607 40.30185 27623 ft 437 kts 269°
2026-04-22 16:02 55.81380 40.24797 27626 ft 440 kts 269°
2026-04-22 16:02 55.81151 40.19421 27621 ft 442 kts 269°
2026-04-22 16:02 55.80918 40.14011 27626 ft 443 kts 269°
2026-04-22 16:02 55.80681 40.08572 27624 ft 443 kts 269°
2026-04-22 16:03 55.80441 40.03128 27627 ft 443 kts 269°
2026-04-22 16:03 55.80197 39.97644 27628 ft 442 kts 269°
2026-04-22 16:03 55.79957 39.92345 27617 ft 427 kts 269°
2026-04-22 16:03 55.79718 39.87176 27545 ft 411 kts 269°
2026-04-22 16:04 55.79491 39.82237 27129 ft 404 kts 269°
2026-04-22 16:04 55.79228 39.77335 26514 ft 403 kts 267°
2026-04-22 16:04 55.78904 39.72374 25706 ft 406 kts 266°
2026-04-22 16:04 55.78567 39.67471 25185 ft 402 kts 266°
2026-04-22 16:05 55.78340 39.64176 24850 ft 400 kts 266°
2026-04-22 16:05 55.77900 39.57731 24202 ft 395 kts 266°
2026-04-22 16:05 55.77572 39.52911 23880 ft 389 kts 267°
2026-04-22 16:05 55.77249 39.48172 23789 ft 389 kts 267°
2026-04-22 16:06 55.76928 39.43499 23598 ft 377 kts 267°
2026-04-22 16:06 55.76615 39.38975 23552 ft 367 kts 267°
2026-04-22 16:06 55.76301 39.34421 23578 ft 372 kts 266°
2026-04-22 16:06 55.75987 39.29885 23594 ft 374 kts 266°
2026-04-22 16:07 55.75670 39.25359 23599 ft 374 kts 266°
2026-04-22 16:07 55.75346 39.20759 23597 ft 373 kts 266°
2026-04-22 16:07 55.75022 39.16215 23600 ft 373 kts 266°
2026-04-22 16:07 55.74697 39.11668 23597 ft 372 kts 266°
2026-04-22 16:08 55.74371 39.07142 23587 ft 372 kts 266°
2026-04-22 16:08 55.74044 39.02627 23555 ft 372 kts 266°
2026-04-22 16:08 55.73721 38.98083 23076 ft 372 kts 267°
2026-04-22 16:08 55.73545 38.93547 22618 ft 366 kts 272°
2026-04-22 16:09 55.73584 38.89119 22460 ft 360 kts 277°
2026-04-22 16:09 55.73782 38.84645 22251 ft 362 kts 278°
2026-04-22 16:09 55.74003 38.80252 21831 ft 359 kts 278°
2026-04-22 16:09 55.74223 38.75882 21413 ft 356 kts 278°
2026-04-22 16:10 55.74439 38.71534 20997 ft 353 kts 278°
2026-04-22 16:10 55.74648 38.67247 20584 ft 351 kts 278°
2026-04-22 16:10 55.74788 38.64360 20305 ft 349 kts 278°
2026-04-22 16:10 55.75231 38.58786 19760 ft 341 kts 289°
2026-04-22 16:11 55.76082 38.54966 19626 ft 327 kts 300°
2026-04-22 16:11 55.77284 38.51578 19626 ft 320 kts 307°
2026-04-22 16:11 55.78548 38.48385 19622 ft 317 kts 307°
2026-04-22 16:11 55.79821 38.45209 19627 ft 315 kts 307°
2026-04-22 16:12 55.81078 38.42065 19617 ft 313 kts 307°
2026-04-22 16:12 55.82326 38.38930 19610 ft 312 kts 308°
2026-04-22 16:12 55.83615 38.35876 19610 ft 311 kts 309°
2026-04-22 16:12 55.84944 38.32817 19606 ft 311 kts 309°
2026-04-22 16:13 55.86266 38.29770 19382 ft 313 kts 308°
2026-04-22 16:13 55.87573 38.26756 18955 ft 311 kts 308°
2026-04-22 16:13 55.88876 38.23745 18562 ft 308 kts 308°
2026-04-22 16:13 55.90179 38.20734 18177 ft 305 kts 308°
2026-04-22 16:14 55.91456 38.17778 17869 ft 299 kts 308°
2026-04-22 16:14 55.92706 38.14881 17604 ft 292 kts 308°
2026-04-22 16:14 55.93924 38.12054 17280 ft 288 kts 308°
2026-04-22 16:14 55.95141 38.09228 16951 ft 283 kts 308°
2026-04-22 16:15 55.96314 38.06498 16638 ft 279 kts 308°
2026-04-22 16:15 55.97477 38.03791 16327 ft 274 kts 308°
2026-04-22 16:15 55.98635 38.01094 16017 ft 270 kts 308°
2026-04-22 16:15 55.99712 37.98402 15740 ft 265 kts 301°
2026-04-22 16:16 56.00476 37.95488 15635 ft 256 kts 290°
2026-04-22 16:16 56.00930 37.92425 15618 ft 257 kts 284°
2026-04-22 16:16 56.01266 37.89322 15613 ft 257 kts 283°
2026-04-22 16:16 56.01591 37.86194 15617 ft 256 kts 283°
2026-04-22 16:17 56.01915 37.83069 15610 ft 256 kts 283°
2026-04-22 16:17 56.02302 37.79985 15595 ft 254 kts 293°
2026-04-22 16:17 56.03196 37.77320 15605 ft 251 kts 313°
2026-04-22 16:17 56.04564 37.75388 15308 ft 254 kts 331°
2026-04-22 16:18 56.06151 37.74044 14995 ft 253 kts 333°
2026-04-22 16:18 56.07736 37.72748 14656 ft 252 kts 333°
2026-04-22 16:18 56.09324 37.71443 14315 ft 250 kts 333°
2026-04-22 16:18 56.10892 37.70150 13993 ft 249 kts 333°
2026-04-22 16:19 56.12522 37.69117 13665 ft 251 kts 345°
2026-04-22 16:19 56.14232 37.68750 13496 ft 250 kts 356°
2026-04-22 16:19 56.15986 37.68904 13421 ft 256 kts
2026-04-22 16:19 56.17763 37.69170 13176 ft 253 kts
2026-04-22 16:20 56.19495 37.69445 12936 ft 252 kts
2026-04-22 16:20 56.21248 37.69721 12690 ft 251 kts
2026-04-22 16:20 56.22391 37.69899 12527 ft 250 kts
2026-04-22 16:20 56.24673 37.70251 12175 ft 247 kts
2026-04-22 16:21 56.26376 37.70513 11918 ft 244 kts
2026-04-22 16:21 56.28072 37.70771 11783 ft 246 kts
2026-04-22 16:21 56.29771 37.70566 11409 ft 243 kts 337°
2026-04-22 16:21 56.31200 37.68970 11060 ft 245 kts 312°
2026-04-22 16:22 56.33384 37.64260 10420 ft 245 kts 309°
2026-04-22 16:22 56.34456 37.61924 10102 ft 243 kts 309°
2026-04-22 16:22 56.35521 37.59612 9790 ft 240 kts 309°
2026-04-22 16:23 56.37580 37.55059 9369 ft 231 kts 305°
2026-04-22 16:23 56.38497 37.52646 8958 ft 232 kts 303°
2026-04-22 16:23 56.39373 37.50252 8606 ft 232 kts 302°
2026-04-22 16:24 56.40263 37.47814 8265 ft 230 kts 302°
2026-04-22 16:24 56.42031 37.42973 7412 ft 234 kts 302°
2026-04-22 16:24 56.42814 37.40419 6964 ft 236 kts 287°
2026-04-22 16:25 56.42926 37.37519 6558 ft 237 kts 262°
2026-04-22 16:25 56.41026 37.32846 6091 ft 238 kts 211°
2026-04-22 16:25 56.39429 37.32126 5962 ft 247 kts 185°
2026-04-22 16:26 56.37732 37.32827 5832 ft 258 kts 155°
2026-04-22 16:26 56.36254 37.34709 5717 ft 263 kts 144°
2026-04-22 16:26 56.34853 37.36780 5591 ft 263 kts 143°
2026-04-22 16:26 56.33435 37.38903 5461 ft 262 kts 143°
2026-04-22 16:27 56.32035 37.40974 5330 ft 262 kts 143°
2026-04-22 16:27 56.30625 37.43038 5208 ft 261 kts 144°
2026-04-22 16:27 56.29219 37.45078 5081 ft 260 kts 144°
2026-04-22 16:27 56.27815 37.47109 4951 ft 259 kts 144°
2026-04-22 16:28 56.26419 37.49121 4826 ft 258 kts 144°
2026-04-22 16:28 56.25015 37.51139 4699 ft 258 kts 144°
2026-04-22 16:28 56.23624 37.53135 4568 ft 257 kts 144°
2026-04-22 16:28 56.22238 37.55124 4431 ft 256 kts 144°
2026-04-22 16:29 56.20840 37.57130 4284 ft 256 kts 144°
2026-04-22 16:29 56.19930 37.58470 4229 ft 255 kts 141°
2026-04-22 16:29 56.18229 37.61435 4132 ft 257 kts 137°
2026-04-22 16:29 56.16982 37.63738 4067 ft 257 kts 136°
2026-04-22 16:30 56.16171 37.65242 3990 ft 256 kts 137°
2026-04-22 16:30 56.14941 37.67528 3861 ft 255 kts 137°
2026-04-22 16:30 56.13703 37.69817 3735 ft 254 kts 137°
2026-04-22 16:30 56.12065 37.72831 3557 ft 254 kts 137°
2026-04-22 16:31 56.10829 37.75095 3413 ft 253 kts 137°
2026-04-22 16:31 56.09541 37.77203 3275 ft 248 kts 154°
2026-04-22 16:31 56.08516 37.77891 3176 ft 233 kts 180°
2026-04-22 16:31 56.06596 37.77094 3116 ft 203 kts 210°
2026-04-22 16:32 56.05774 37.76408 3116 ft 190 kts 211°
2026-04-22 16:32 56.04241 37.75209 3003 ft 171 kts 208°
2026-04-22 16:32 56.03151 37.74451 2903 ft 169 kts 207°
2026-04-22 16:32 56.02182 37.73364 2822 ft 158 kts 235°
2026-04-22 16:33 56.01692 37.71730 2705 ft 147 kts 252°
2026-04-22 16:33 56.01481 37.70557 2668 ft 147 kts 257°
2026-04-22 16:33 56.01159 37.68216 2474 ft 146 kts 258°
2026-04-22 16:33 56.00914 37.66454 2447 ft 146 kts 257°
2026-04-22 16:34 56.00656 37.64685 2441 ft 147 kts 257°
2026-04-22 16:34 56.00388 37.62919 2447 ft 147 kts 256°
2026-04-22 16:34 56.00122 37.61185 2450 ft 147 kts 256°
2026-04-22 16:34 55.99857 37.59459 2327 ft 136 kts 256°
2026-04-22 16:35 55.99616 37.57892 2196 ft 129 kts 256°
2026-04-22 16:35 55.99379 37.56341 2005 ft 128 kts 256°
2026-04-22 16:35 55.99148 37.54826 1827 ft 128 kts 256°
2026-04-22 16:35 55.98916 37.53296 1647 ft 128 kts 256°
2026-04-22 16:36 55.98681 37.51747 1471 ft 129 kts 255°
2026-04-22 16:36 55.98445 37.50188 1295 ft 130 kts 255°
2026-04-22 16:36 55.98213 37.48646 1123 ft 131 kts 256°
2026-04-22 16:36 55.98054 37.47594 1005 ft 132 kts 255°
2026-04-22 16:37 55.97736 37.45485 771 ft 133 kts 256°
2026-04-22 16:37 55.97499 37.43907 610 ft 124 kts 255°
2026-04-22 16:37 55.97318 37.42681 602 ft 78 kts 257°
2026-04-22 16:37 55.97224 37.42036 612 ft 28 kts 256°
2026-04-22 16:38 55.97203 37.41889 613 ft 20 kts 256°
2026-04-22 16:38 55.97165 37.41630 615 ft 20 kts 255°
2026-04-22 16:38 55.97157 37.41393 615 ft 18 kts 301°
2026-04-22 16:38 55.97303 37.41276 618 ft 16 kts 345°
2026-04-22 16:39 55.97409 37.41223 620 ft 15 kts 344°
2026-04-22 16:39 55.97509 37.41195 622 ft 13 kts 11°
2026-04-22 16:39 55.97554 37.41328 622 ft 13 kts 81°
2026-04-22 16:39 55.97568 37.41446 620 ft 15 kts 77°
2026-04-22 16:40 55.97612 37.41588 620 ft 11 kts 10°
2026-04-22 16:40 55.97688 37.41650 619 ft 11 kts 74°
2026-04-22 16:40 55.97738 37.41882 618 ft 10 kts 73°
2026-04-22 16:41 55.97752 37.41972 616 ft 11 kts 75°
2026-04-22 16:41 55.97801 37.42078 614 ft 12 kts
2026-04-22 16:41 55.97893 37.42036 615 ft 7 kts 346°
2026-04-22 16:41 55.97928 37.41991 616 ft 5 kts 296°
2026-04-22 16:42 55.97927 37.41935 617 ft 3 kts 254°
2026-04-22 16:42 55.97921 37.41901 617 ft 2 kts 252°
2026-04-22 16:42 55.97919 37.41892 617 ft 0 kts 252°